CEB821 RPLL-RPUV

Flight info

Callsign CEB821
Flight time N/A
Altitude 27000
Route RDVXTIMON/31 W15 RAGAY W15A NGA RPUV/06
Aircraft A320/M-SDE3FGHIRWY/LB1

Departure

Time 2026-05-08 02:07
Airport Ninoy Aquino International Airport (RPLL)

Arrival

Time N/A
Airport Virac Airport (RPUV)
Time Latitude Longitude Altitude Speed Heading
2026-05-08 01:38 14.52602 121.00097 84 ft 0 kts 224°
2026-05-08 01:53 14.52607 121.00102 84 ft 2 kts 230°
2026-05-08 01:53 14.52614 121.00115 84 ft 2 kts 247°
2026-05-08 01:54 14.52619 121.00130 84 ft 2 kts 262°
2026-05-08 01:54 14.52619 121.00146 84 ft 2 kts 277°
2026-05-08 01:54 14.52616 121.00161 84 ft 2 kts 280°
2026-05-08 01:54 14.52614 121.00176 84 ft 2 kts 279°
2026-05-08 01:55 14.52611 121.00191 84 ft 2 kts 279°
2026-05-08 01:55 14.52601 121.00176 84 ft 2 kts 208°
2026-05-08 01:55 14.52582 121.00179 84 ft 2 kts 144°
2026-05-08 01:56 14.52578 121.00184 84 ft 0 kts 134°
2026-05-08 01:58 14.52577 121.00185 84 ft 0 kts 134°
2026-05-08 01:58 14.52571 121.00191 84 ft 1 kts 134°
2026-05-08 01:58 14.52559 121.00204 84 ft 3 kts 134°
2026-05-08 01:58 14.52538 121.00225 84 ft 5 kts 135°
2026-05-08 01:59 14.52508 121.00256 84 ft 7 kts 135°
2026-05-08 01:59 14.52468 121.00298 84 ft 9 kts 136°
2026-05-08 01:59 14.52417 121.00350 84 ft 11 kts 136°
2026-05-08 01:59 14.52358 121.00411 84 ft 12 kts 135°
2026-05-08 02:00 14.52294 121.00478 84 ft 13 kts 135°
2026-05-08 02:00 14.52228 121.00545 84 ft 13 kts 135°
2026-05-08 02:00 14.52163 121.00613 84 ft 13 kts 135°
2026-05-08 02:00 14.52096 121.00681 84 ft 13 kts 135°
2026-05-08 02:01 14.52028 121.00751 84 ft 13 kts 135°
2026-05-08 02:01 14.51961 121.00820 84 ft 13 kts 135°
2026-05-08 02:01 14.51893 121.00890 84 ft 14 kts 135°
2026-05-08 02:01 14.51821 121.00965 84 ft 14 kts 135°
2026-05-08 02:02 14.51745 121.01043 84 ft 15 kts 135°
2026-05-08 02:02 14.51669 121.01122 84 ft 15 kts 135°
2026-05-08 02:02 14.51596 121.01198 84 ft 14 kts 135°
2026-05-08 02:02 14.51528 121.01268 84 ft 13 kts 135°
2026-05-08 02:03 14.51464 121.01333 84 ft 12 kts 136°
2026-05-08 02:03 14.51405 121.01394 84 ft 11 kts 135°
2026-05-08 02:03 14.51351 121.01451 84 ft 10 kts 126°
2026-05-08 02:03 14.51352 121.01517 84 ft 9 kts 47°
2026-05-08 02:04 14.51365 121.01577 84 ft 7 kts 122°
2026-05-08 02:04 14.51327 121.01618 84 ft 8 kts 135°
2026-05-08 02:04 14.51285 121.01662 84 ft 9 kts 135°
2026-05-08 02:04 14.51237 121.01712 84 ft 10 kts 136°
2026-05-08 02:05 14.51184 121.01766 84 ft 11 kts 134°
2026-05-08 02:05 14.51126 121.01826 84 ft 10 kts 135°
2026-05-08 02:05 14.51080 121.01862 84 ft 7 kts 166°
2026-05-08 02:05 14.51039 121.01839 84 ft 7 kts 238°
2026-05-08 02:06 14.51034 121.01785 84 ft 7 kts 290°
2026-05-08 02:06 14.51051 121.01761 84 ft 0 kts 315°
2026-05-08 02:06 14.51187 121.01620 84 ft 66 kts 315°
2026-05-08 02:07 14.51686 121.01105 84 ft 134 kts 315°
2026-05-08 02:07 14.52428 121.00345 474 ft 154 kts 315°
2026-05-08 02:07 14.53177 120.99571 1135 ft 155 kts 315°
2026-05-08 02:07 14.53932 120.98782 1804 ft 157 kts 315°
2026-05-08 02:08 14.54712 120.97979 2202 ft 166 kts 314°
2026-05-08 02:08 14.55570 120.97082 2497 ft 180 kts 315°
2026-05-08 02:08 14.56499 120.96112 2797 ft 196 kts 316°
2026-05-08 02:08 14.57509 120.95076 3102 ft 212 kts 316°
2026-05-08 02:09 14.58777 120.94186 3314 ft 234 kts 345°
2026-05-08 02:09 14.60445 120.94265 3641 ft 252 kts 22°
2026-05-08 02:09 14.61828 120.95466 4002 ft 272 kts 59°
2026-05-08 02:09 14.62273 120.97365 4711 ft 277 kts 94°
2026-05-08 02:10 14.61645 120.99210 5458 ft 280 kts 122°
2026-05-08 02:10 14.60463 121.00863 6138 ft 286 kts 128°
2026-05-08 02:10 14.59231 121.02504 6810 ft 291 kts 127°
2026-05-08 02:10 14.58051 121.04183 7506 ft 295 kts 124°
2026-05-08 02:11 14.56897 121.05952 8217 ft 299 kts 123°
2026-05-08 02:11 14.55769 121.07774 8927 ft 302 kts 123°
2026-05-08 02:11 14.54643 121.09634 9623 ft 306 kts 122°
2026-05-08 02:11 14.53521 121.11511 10295 ft 310 kts 121°
2026-05-08 02:12 14.52385 121.13446 10712 ft 324 kts 121°
2026-05-08 02:12 14.51175 121.15517 11015 ft 341 kts 121°
2026-05-08 02:12 14.49919 121.17670 11310 ft 357 kts 121°
2026-05-08 02:12 14.48614 121.19910 11772 ft 366 kts 121°
2026-05-08 02:13 14.47302 121.22164 12389 ft 370 kts 121°
2026-05-08 02:13 14.45969 121.24453 13024 ft 372 kts 121°
2026-05-08 02:13 14.44646 121.26725 13614 ft 376 kts 121°
2026-05-08 02:13 14.43284 121.29062 14221 ft 379 kts 122°
2026-05-08 02:14 14.41908 121.31422 14831 ft 381 kts 122°
2026-05-08 02:14 14.40548 121.33753 15419 ft 383 kts 122°
2026-05-08 02:14 14.39158 121.36134 16006 ft 386 kts 122°
2026-05-08 02:14 14.37760 121.38528 16586 ft 388 kts 122°
2026-05-08 02:15 14.36357 121.40930 17153 ft 390 kts 122°
2026-05-08 02:15 14.34951 121.43337 17707 ft 392 kts 122°
2026-05-08 02:15 14.33537 121.45757 18252 ft 394 kts 122°
2026-05-08 02:15 14.32121 121.48179 18786 ft 396 kts 122°
2026-05-08 02:16 14.30681 121.50642 19315 ft 398 kts 122°
2026-05-08 02:16 14.29247 121.53093 19857 ft 400 kts 122°
2026-05-08 02:16 14.27817 121.55538 20442 ft 399 kts 123°
2026-05-08 02:16 14.26377 121.57999 20960 ft 401 kts 123°
2026-05-08 02:17 14.24926 121.60476 21443 ft 403 kts 123°
2026-05-08 02:17 14.23454 121.62988 21923 ft 405 kts 123°
2026-05-08 02:17 14.22077 121.65339 22360 ft 407 kts 123°
2026-05-08 02:17 14.20627 121.67812 22807 ft 408 kts 123°
2026-05-08 02:18 14.19169 121.70300 23245 ft 410 kts 123°
2026-05-08 02:18 14.17701 121.72804 23784 ft 409 kts 123°
2026-05-08 02:18 14.16223 121.75324 24379 ft 406 kts 123°
2026-05-08 02:18 14.14775 121.77792 24943 ft 403 kts 123°
2026-05-08 02:19 14.13314 121.80281 25443 ft 403 kts 123°
2026-05-08 02:19 14.11866 121.82745 25849 ft 404 kts 123°
2026-05-08 02:19 14.10407 121.85228 26240 ft 406 kts 123°
2026-05-08 02:19 14.08951 121.87706 26635 ft 407 kts 123°
2026-05-08 02:20 14.07472 121.90221 26920 ft 410 kts 122°
2026-05-08 02:20 14.05994 121.92741 26942 ft 411 kts 122°
2026-05-08 02:20 14.04594 121.95329 26945 ft 412 kts 119°
2026-05-08 02:20 14.03288 121.97928 26947 ft 411 kts 118°
2026-05-08 02:21 14.01989 122.00535 26948 ft 410 kts 118°
2026-05-08 02:21 14.00699 122.03125 26948 ft 410 kts 118°
2026-05-08 02:21 13.99389 122.05749 26948 ft 410 kts 118°
2026-05-08 02:21 13.98956 122.06616 26948 ft 410 kts 118°
2026-05-08 02:22 13.95359 122.13809 26948 ft 410 kts 118°
2026-05-08 02:22 13.94060 122.16406 26948 ft 410 kts 118°
2026-05-08 02:22 13.92750 122.19022 26948 ft 410 kts 118°
2026-05-08 02:23 13.91437 122.21644 26948 ft 410 kts 118°
2026-05-08 02:23 13.90136 122.24245 26948 ft 410 kts 118°
2026-05-08 02:23 13.88831 122.26853 26948 ft 410 kts 118°
2026-05-08 02:23 13.87515 122.29481 26948 ft 410 kts 118°
2026-05-08 02:24 13.86208 122.32087 26948 ft 410 kts 118°
2026-05-08 02:24 13.84911 122.34672 26948 ft 410 kts 118°
2026-05-08 02:24 13.83603 122.37278 26948 ft 410 kts 118°
2026-05-08 02:24 13.82287 122.39900 26948 ft 410 kts 118°
2026-05-08 02:25 13.80962 122.42539 26948 ft 410 kts 118°
2026-05-08 02:25 13.79661 122.45128 26948 ft 410 kts 118°
2026-05-08 02:25 13.78366 122.47704 26948 ft 410 kts 118°
2026-05-08 02:25 13.77053 122.50314 26948 ft 410 kts 118°
2026-05-08 02:26 13.75756 122.52895 26948 ft 410 kts 118°
2026-05-08 02:26 13.74451 122.55517 26947 ft 411 kts 117°
2026-05-08 02:26 13.73314 122.58244 26947 ft 410 kts 111°
2026-05-08 02:26 13.72443 122.61025 26866 ft 412 kts 106°
2026-05-08 02:27 13.71768 122.63897 26231 ft 417 kts 104°
2026-05-08 02:27 13.71138 122.66852 25272 ft 424 kts 104°
2026-05-08 02:27 13.70522 122.69792 24438 ft 427 kts 104°
2026-05-08 02:27 13.69895 122.72774 23621 ft 429 kts 104°
2026-05-08 02:28 13.69260 122.75768 22826 ft 430 kts 104°
2026-05-08 02:28 13.68623 122.78760 22196 ft 427 kts 104°
2026-05-08 02:28 13.67992 122.81709 21619 ft 423 kts 104°
2026-05-08 02:28 13.67358 122.84666 21079 ft 418 kts 104°
2026-05-08 02:29 13.66742 122.87539 20541 ft 414 kts 104°
2026-05-08 02:29 13.66118 122.90436 19993 ft 410 kts 104°
2026-05-08 02:29 13.65500 122.93305 19451 ft 407 kts 103°
2026-05-08 02:29 13.64894 122.96118 18924 ft 404 kts 103°
2026-05-08 02:30 13.64283 122.98953 18394 ft 401 kts 103°
2026-05-08 02:30 13.63684 123.01730 17874 ft 398 kts 103°
2026-05-08 02:30 13.63088 123.04491 17361 ft 395 kts 103°
2026-05-08 02:30 13.62497 123.07233 16850 ft 392 kts 103°
2026-05-08 02:31 13.61904 123.09978 16337 ft 390 kts 103°
2026-05-08 02:31 13.61315 123.12701 15973 ft 383 kts 103°
2026-05-08 02:31 13.60748 123.15323 15916 ft 367 kts 103°
2026-05-08 02:31 13.60210 123.17815 15868 ft 352 kts 103°
2026-05-08 02:32 13.59864 123.19414 15776 ft 345 kts 103°
2026-05-08 02:32 13.59508 123.21055 15704 ft 336 kts 103°
2026-05-08 02:32 13.58213 123.27028 15520 ft 303 kts 104°
2026-05-08 02:33 13.57445 123.28984 15229 ft 297 kts 129°
2026-05-08 02:33 13.55841 123.30342 14512 ft 302 kts 161°
2026-05-08 02:33 13.53770 123.30648 13736 ft 306 kts 192°
2026-05-08 02:33 13.51782 123.29912 13275 ft 300 kts 216°
2026-05-08 02:34 13.50280 123.28442 13293 ft 298 kts 239°
2026-05-08 02:34 13.49539 123.26479 13319 ft 295 kts 264°
2026-05-08 02:34 13.49507 123.24353 13359 ft 295 kts 272°
2026-05-08 02:34 13.49569 123.22256 13373 ft 295 kts 272°
2026-05-08 02:35 13.49640 123.20137 13379 ft 295 kts 272°
2026-05-08 02:35 13.49717 123.18040 13381 ft 295 kts 274°
2026-05-08 02:35 13.50234 123.15989 13359 ft 295 kts 301°
2026-05-08 02:35 13.51670 123.14498 13379 ft 299 kts 328°
2026-05-08 02:36 13.53653 123.13821 13387 ft 305 kts 353°
2026-05-08 02:36 13.55774 123.14132 13393 ft 312 kts 20°
2026-05-08 02:36 13.57564 123.15443 13396 ft 319 kts 49°
2026-05-08 02:36 13.58556 123.17487 13402 ft 324 kts 78°
2026-05-08 02:37 13.58644 123.19820 13427 ft 326 kts 92°
2026-05-08 02:37 13.58505 123.22124 13423 ft 326 kts 93°
2026-05-08 02:37 13.58360 123.24468 13422 ft 326 kts 92°
2026-05-08 02:37 13.58240 123.26799 13421 ft 326 kts 92°
2026-05-08 02:38 13.57857 123.29091 13398 ft 325 kts 114°
2026-05-08 02:38 13.56528 123.30944 13410 ft 322 kts 144°
2026-05-08 02:38 13.54512 123.31884 13414 ft 316 kts 175°
2026-05-08 02:38 13.52381 123.31679 13412 ft 308 kts 205°
2026-05-08 02:39 13.50627 123.30492 13411 ft 302 kts 229°
2026-05-08 02:39 13.49510 123.28674 13402 ft 297 kts 252°
2026-05-08 02:39 13.49214 123.26569 13401 ft 295 kts 272°
2026-05-08 02:39 13.49340 123.24464 13402 ft 295 kts 274°
2026-05-08 02:40 13.49474 123.22372 13396 ft 295 kts 274°
2026-05-08 02:40 13.49586 123.20259 13396 ft 295 kts 273°
2026-05-08 02:40 13.49689 123.18134 13393 ft 295 kts 276°
2026-05-08 02:40 13.50259 123.16125 13378 ft 295 kts 301°
2026-05-08 02:41 13.51692 123.14584 13388 ft 299 kts 327°
2026-05-08 02:41 13.53635 123.13875 13395 ft 305 kts 352°
2026-05-08 02:41 13.55771 123.14154 13401 ft 312 kts 20°
2026-05-08 02:41 13.56412 123.14471 13403 ft 315 kts 29°